FW8308 Weather Reports


Display with metric or nautical units.
time (UTC)temp
F
wind
direction
speed
MPH
gust
MPH
rain 1hr
in
rain 24hr
in
rain mn
in
humidity
%
barometer
mb
20260507132649 72 52 0.0 1.0 0.00 0.00 0.00 30 1014.1
20260507132145 72 51 0.0 0.0 0.00 0.00 0.00 31 1014.1
20260507131643 72 55 0.0 0.0 0.00 0.00 0.00 31 1014.1
20260507131140 71 57 0.0 0.0 0.00 0.00 0.00 31 1014.2
20260507130636 71 37 0.0 0.0 0.00 0.00 0.00 32 1014.1
20260507130134 71 355 0.0 0.0 0.00 0.00 0.00 31 1014.0
20260507125633 71 1 0.0 1.0 0.00 0.00 0.00 32 1014.2
20260507125130 70 13 0.0 1.0 0.00 0.00 0.00 32 1013.9
20260507124626 70 41 0.0 0.0 0.00 0.00 0.00 33 1014.1
20260507124124 70 31 0.0 0.0 0.00 0.00 0.00 32 1014.0
20260507123622 70 358 0.0 1.0 0.00 0.00 0.00 32 1013.9
20260507123119 70 12 0.0 0.0 0.00 0.00 0.00 32 1013.9
20260507122614 69 64 0.0 0.0 0.00 0.00 0.00 33 1013.9
20260507122110 69 23 0.0 0.0 0.00 0.00 0.00 33 1014.1
20260507121606 68 5 0.0 1.0 0.00 0.00 0.00 34 1013.9
20260507121102 68 59 0.0 0.0 0.00 0.00 0.00 34 1014.0
20260507120558 65 61 0.0 0.0 0.00 0.00 0.00 35 1014.0
20260507120055 65 85 0.0 0.0 0.00 0.00 0.00 36 1014.2
20260507115551 65 84 0.0 0.0 0.00 0.00 0.00 36 1014.2
20260507115047 66 95 0.0 0.0 0.00 0.00 0.00 36 1014.2
20260507114543 67 85 0.0 0.0 0.00 0.00 0.00 34 1014.3
20260507114041 67 54 0.0 0.0 0.00 0.00 0.00 34 1014.3
20260507113538 68 64 0.0 0.0 0.00 0.00 0.00 34 1014.1
20260507113035 68 27 0.0 0.0 0.00 0.00 0.00 33 1014.2
20260507112533 68 48 0.0 0.0 0.00 0.00 0.00 33 1014.4
20260507112029 68 15 0.0 1.0 0.00 0.00 0.00 33 1014.3
20260507111526 66 39 0.0 0.0 0.00 0.00 0.00 35 1014.4
20260507111023 67 24 0.0 0.0 0.00 0.00 0.00 36 1014.5
20260507110519 65 27 0.0 0.0 0.00 0.00 0.00 36 1014.4
20260507110016 64 70 0.0 0.0 0.00 0.00 0.00 39 1014.6
20260507105513 63 81 0.0 0.0 0.00 0.00 0.00 40 1014.5
20260507105009 62 89 0.0 0.0 0.00 0.00 0.00 39 1014.5
20260507104507 63 89 0.0 0.0 0.00 0.00 0.00 39 1014.6
20260507104003 64 98 0.0 0.0 0.00 0.00 0.00 39 1014.6
20260507103459 64 106 0.0 0.0 0.00 0.00 0.00 39 1014.5
20260507102955 64 88 0.0 0.0 0.00 0.00 0.00 39 1014.7
20260507102452 64 92 0.0 0.0 0.00 0.00 0.00 39 1014.7
20260507101948 65 73 0.0 0.0 0.00 0.00 0.00 39 1014.6
20260507101443 64 84 0.0 0.0 0.00 0.00 0.00 39 1014.8
20260507100940 63 86 0.0 0.0 0.00 0.00 0.00 40 1014.9
20260507100438 64 91 0.0 0.0 0.00 0.00 0.00 40 1014.8
20260507095936 64 93 0.0 0.0 0.00 0.00 0.00 39 1014.8
20260507095433 65 93 0.0 0.0 0.00 0.00 0.00 39 1015.0
20260507094930 66 96 0.0 0.0 0.00 0.00 0.00 37 1014.9
20260507094426 67 102 0.0 0.0 0.00 0.00 0.00 36 1014.8
20260507093923 67 84 0.0 0.0 0.00 0.00 0.00 36 1014.7
20260507093421 67 64 0.0 0.0 0.00 0.00 0.00 36 1014.7
20260507092919 67 40 0.0 0.0 0.00 0.00 0.00 38 1014.7
20260507092415 67 42 0.0 0.0 0.00 0.00 0.00 36 1014.5
20260507091912 67 45 0.0 0.0 0.00 0.00 0.00 36 1014.8
20260507091408 67 55 0.0 0.0 0.00 0.00 0.00 38 1014.8
20260507090904 66 48 0.0 0.0 0.00 0.00 0.00 44 1014.7
20260507090400 67 35 0.0 0.0 0.00 0.00 0.00 43 1014.8
20260507085858 67 62 0.0 0.0 0.00 0.00 0.00 41 1014.7
20260507085354 67 54 0.0 0.0 0.00 0.00 0.00 37 1014.6
20260507084852 67 67 0.0 0.0 0.00 0.00 0.00 37 1014.9
20260507084348 67 70 0.0 0.0 0.00 0.00 0.00 37 1015.0
20260507083845 67 67 0.0 0.0 0.00 0.00 0.00 37 1014.8
20260507083342 67 67 0.0 0.0 0.00 0.00 0.00 38 1014.9
20260507082838 67 74 0.0 0.0 0.00 0.00 0.00 40 1014.8
20260507082333 66 49 0.0 0.0 0.00 0.00 0.00 42 1014.9
20260507081831 66 80 0.0 0.0 0.00 0.00 0.00 43 1015.0
20260507081327 66 72 0.0 0.0 0.00 0.00 0.00 45 1014.9
20260507080824 66 69 0.0 0.0 0.00 0.00 0.00 43 1014.9
20260507080320 66 41 0.0 0.0 0.00 0.00 0.00 43 1014.9
20260507075815 67 52 0.0 0.0 0.00 0.00 0.00 45 1015.1
20260507075312 68 66 0.0 0.0 0.00 0.00 0.00 40 1014.9
20260507074809 68 68 0.0 0.0 0.00 0.00 0.00 40 1015.0
20260507074306 68 70 0.0 0.0 0.00 0.00 0.00 38 1015.2
20260507073803 67 78 0.0 0.0 0.00 0.00 0.00 38 1015.0
20260507073300 67 85 0.0 0.0 0.00 0.00 0.00 38 1015.1
20260507072757 67 79 0.0 0.0 0.00 0.00 0.00 39 1015.0
20260507072254 67 82 0.0 0.0 0.00 0.00 0.00 42 1015.0
20260507071752 68 80 0.0 0.0 0.00 0.00 0.00 45 1015.2
20260507071248 68 67 0.0 0.0 0.00 0.00 0.00 43 1014.9
20260507070745 68 73 0.0 0.0 0.00 0.00 0.00 42 1014.8
20260507070242 68 73 0.0 0.0 0.00 0.00 0.00 44 1015.1
20260507065738 69 82 0.0 0.0 0.00 0.00 0.00 39 1015.0
20260507065235 69 82 0.0 0.0 0.00 0.00 0.00 39 1014.9
20260507064733 69 79 0.0 0.0 0.00 0.00 0.00 40 1015.0
20260507064232 70 80 0.0 0.0 0.00 0.00 0.00 41 1015.0
20260507063728 70 88 0.0 0.0 0.00 0.00 0.00 32 1014.8
20260507063225 71 89 0.0 0.0 0.00 0.00 0.00 31 1014.8
20260507062722 71 89 0.0 0.0 0.00 0.00 0.00 31 1015.0
20260507062220 71 92 0.0 0.0 0.00 0.00 0.00 31 1015.2
20260507061717 71 97 0.0 0.0 0.00 0.00 0.00 31 1015.0
20260507061215 72 95 0.0 0.0 0.00 0.00 0.00 31 1014.8
20260507060713 72 100 0.0 0.0 0.00 0.00 0.00 31 1014.9
20260507060209 72 107 0.0 0.0 0.00 0.00 0.00 30 1014.8
20260507055705 72 107 0.0 0.0 0.00 0.00 0.00 31 1015.0
20260507055201 72 128 0.0 0.0 0.00 0.00 0.00 30 1015.0
20260507054657 72 108 0.0 0.0 0.00 0.00 0.00 31 1014.7
20260507054154 72 136 0.0 0.0 0.00 0.00 0.00 31 1014.8
20260507053652 73 116 0.0 0.0 0.00 0.00 0.00 31 1015.0
20260507053150 72 134 0.0 0.0 0.00 0.00 0.00 31 1015.2
20260507052648 72 113 0.0 0.0 0.00 0.00 0.00 31 1015.1
20260507052144 73 96 0.0 0.0 0.00 0.00 0.00 31 1015.1
20260507051642 73 104 0.0 0.0 0.00 0.00 0.00 31 1014.9
20260507051138 73 110 0.0 0.0 0.00 0.00 0.00 30 1015.1
20260507050635 74 107 0.0 0.0 0.00 0.00 0.00 30 1014.9
20260507050132 74 114 0.0 0.0 0.00 0.00 0.00 29 1014.8
20260507045629 75 109 0.0 0.0 0.00 0.00 0.00 29 1014.9
20260507045126 75 147 0.0 0.0 0.00 0.00 0.00 29 1014.6
20260507044622 74 104 0.0 0.0 0.00 0.00 0.00 30 1014.8
20260507044119 74 108 0.0 0.0 0.00 0.00 0.00 29 1014.5
20260507043615 74 117 0.0 0.0 0.00 0.00 0.00 30 1014.8
20260507043113 74 107 0.0 0.0 0.00 0.00 0.00 30 1014.4
20260507042608 75 109 0.0 0.0 0.00 0.00 0.00 29 1014.5
20260507042104 75 110 0.0 0.0 0.00 0.00 0.00 29 1014.6
20260507041601 75 111 0.0 0.0 0.00 0.00 0.00 29 1014.4
20260507041058 75 110 0.0 0.0 0.00 0.00 0.00 29 1014.6
20260507040554 75 124 0.0 0.0 0.00 0.00 0.00 29 1014.3
20260507040051 75 110 0.0 0.0 0.00 0.00 0.00 29 1014.3
20260507035547 75 105 0.0 0.0 0.00 0.00 0.00 29 1014.3
20260507035043 76 105 0.0 0.0 0.00 0.00 0.00 29 1014.1
20260507034540 76 112 0.0 0.0 0.00 0.00 0.00 28 1013.9
20260507034038 77 129 0.0 0.0 0.00 0.00 0.00 28 1014.1
20260507033536 77 112 0.0 0.0 0.00 0.00 0.00 28 1013.9
20260507033033 77 138 0.0 0.0 0.00 0.00 0.00 27 1013.8
20260507032530 77 216 0.0 0.0 0.00 0.00 0.00 27 1013.9
20260507032026 78 145 0.0 0.0 0.00 0.00 0.00 27 1013.9
20260507031522 78 146 0.0 0.0 0.00 0.00 0.00 26 1013.9
20260507031020 78 187 0.0 0.0 0.00 0.00 0.00 26 1013.8
20260507030516 79 168 0.0 0.0 0.00 0.00 0.00 26 1013.5
20260507030014 79 165 0.0 0.0 0.00 0.00 0.00 26 1013.6
20260507025511 79 179 0.0 0.0 0.00 0.00 0.00 26 1013.5
20260507025008 79 194 0.0 0.0 0.00 0.00 0.00 26 1013.5
20260507024506 79 202 0.0 0.0 0.00 0.00 0.00 26 1013.2
20260507024002 79 189 0.0 0.0 0.00 0.00 0.00 26 1013.3
20260507023458 79 234 0.0 1.0 0.00 0.00 0.00 26 1013.2
20260507022955 80 181 0.0 0.0 0.00 0.00 0.00 26 1013.2
20260507022453 80 144 0.0 0.0 0.00 0.00 0.00 25 1013.1
20260507021948 80 191 0.0 0.0 0.00 0.00 0.00 25 1013.2
20260507021444 80 189 0.0 2.0 0.00 0.00 0.00 25 1013.1
20260507020941 80 210 0.0 0.0 0.00 0.00 0.00 25 1013.0
20260507020438 81 250 0.0 0.0 0.00 0.00 0.00 25 1013.0
20260507015935 81 222 1.0 1.0 0.00 0.00 0.00 25 1013.2
20260507015433 81 156 0.0 1.0 0.00 0.00 0.00 25 1013.1
20260507014930 82 208 0.0 2.0 0.00 0.00 0.00 25 1013.2
20260507014427 82 220 0.0 1.0 0.00 0.00 0.00 24 1013.2
20260507013923 82 213 0.0 2.0 0.00 0.00 0.00 24 1013.0
20260507013420 82 210 0.0 2.0 0.00 0.00 0.00 24 1013.0
20260507012918 82 197 0.0 2.0 0.00 0.00 0.00 24 1013.1
20260507012414 82 221 1.0 2.0 0.00 0.00 0.00 24 1012.9
20260507011911 82 250 0.0 2.0 0.00 0.00 0.00 24 1013.0
20260507011408 82 226 0.0 1.0 0.00 0.00 0.00 24 1013.0
20260507010907 82 220 1.0 3.0 0.00 0.00 0.00 24 1013.0
20260507010403 83 202 0.0 1.0 0.00 0.00 0.00 24 1013.0
20260507005901 83 199 0.0 1.0 0.00 0.00 0.00 24 1013.2
20260507005357 83 216 0.0 3.0 0.00 0.00 0.00 24 1012.9
20260507004854 83 228 0.0 2.0 0.00 0.00 0.00 24 1013.0
20260507004351 83 86 0.0 1.0 0.00 0.00 0.00 24 1012.9
20260507003850 83 212 0.0 0.0 0.00 0.00 0.00 24 1012.9
20260507003344 83 231 2.0 3.0 0.00 0.00 0.00 24 1012.8
20260507002839 84 196 0.0 2.0 0.00 0.00 0.00 24 1012.8
20260507002335 83 235 0.0 1.0 0.00 0.00 0.00 24 1013.0
20260507001833 84 240 1.0 2.0 0.00 0.00 0.00 23 1013.0
20260507001329 84 232 1.0 2.0 0.00 0.00 0.00 24 1012.8
20260507000825 83 196 0.0 2.0 0.00 0.00 0.00 23 1012.9
20260507000321 83 217 0.0 2.0 0.00 0.00 0.00 24 1012.8
20260506235818 84 299 0.0 1.0 0.00 0.00 0.00 24 1012.5
20260506235314 84 174 1.0 2.0 0.00 0.00 0.00 24 1012.8
20260506234811 84 134 0.0 0.0 0.00 0.00 0.00 24 1012.8
20260506234309 84 208 0.0 1.0 0.00 0.00 0.00 24 1012.9
20260506233806 84 180 0.0 0.0 0.00 0.00 0.00 23 1013.3
20260506233302 84 131 0.0 0.0 0.00 0.00 0.00 24 1013.3
20260506232759 83 151 0.0 0.0 0.00 0.00 0.00 24 1013.1
20260506232254 84 359 0.0 0.0 0.00 0.00 0.00 24 1013.1
20260506231751 83 234 0.0 2.0 0.00 0.00 0.00 24 1013.4
20260506231249 83 288 0.0 2.0 0.00 0.00 0.00 24 1013.5
20260506230746 83 254 1.0 2.0 0.00 0.00 0.00 24 1013.4
20260506230243 83 167 1.0 2.0 0.00 0.00 0.00 24 1013.4
20260506225739 84 185 0.0 3.0 0.00 0.00 0.00 24 1013.3
20260506225236 84 196 0.0 2.0 0.00 0.00 0.00 24 1013.5
20260506224733 83 159 0.0 1.0 0.00 0.00 0.00 24 1013.5
20260506224230 83 103 0.0 1.0 0.00 0.00 0.00 24 1013.3
20260506223726 84 176 0.0 3.0 0.00 0.00 0.00 24 1013.7
20260506223222 83 215 0.0 0.0 0.00 0.00 0.00 24 1013.7
20260506222719 82 125 0.0 0.0 0.00 0.00 0.00 25 1013.6
20260506222214 83 339 0.0 1.0 0.00 0.00 0.00 25 1013.7
20260506221713 83 243 1.0 2.0 0.00 0.00 0.00 24 1013.6
20260506221211 84 131 0.0 0.0 0.00 0.00 0.00 24 1013.9
20260506220708 83 183 1.0 3.0 0.00 0.00 0.00 24 1013.8
20260506220202 82 232 0.0 1.0 0.00 0.00 0.00 25 1014.2
20260506215659 83 323 0.0 2.0 0.00 0.00 0.00 25 1014.0
20260506215154 83 142 0.0 0.0 0.00 0.00 0.00 24 1014.1
20260506214652 82 88 0.0 1.0 0.00 0.00 0.00 25 1014.3
20260506214149 82 238 2.0 5.0 0.00 0.00 0.00 25 1014.3
20260506213647 83 201 1.0 2.0 0.00 0.00 0.00 25 1014.2
20260506213144 83 268 0.0 0.0 0.00 0.00 0.00 24 1014.6
20260506212642 82 199 0.0 0.0 0.00 0.00 0.00 25 1014.4
20260506212136 82 196 1.0 5.0 0.00 0.00 0.00 25 1014.6
20260506211632 82 169 2.0 5.0 0.00 0.00 0.00 25 1014.7
20260506211129 82 226 1.0 2.0 0.00 0.00 0.00 25 1014.8
20260506210626 82 208 0.0 1.0 0.00 0.00 0.00 25 1014.9
20260506210122 82 320 3.0 3.0 0.00 0.00 0.00 25 1014.7
20260506205619 82 111 0.0 1.0 0.00 0.00 0.00 25 1014.9
20260506205114 81 101 0.0 1.0 0.00 0.00 0.00 25 1015.0
20260506204612 82 112 0.0 0.0 0.00 0.00 0.00 25 1015.2
20260506204109 81 110 0.0 1.0 0.00 0.00 0.00 25 1015.2
20260506203608 80 95 0.0 0.0 0.00 0.00 0.00 25 1015.3
20260506203104 81 175 0.0 2.0 0.00 0.00 0.00 25 1015.5
20260506202602 81 187 0.0 1.0 0.00 0.00 0.00 24 1015.2
20260506202057 81 153 1.0 3.0 0.00 0.00 0.00 25 1015.3
20260506201555 81 166 0.0 3.0 0.00 0.00 0.00 25 1015.6
20260506201052 80 236 0.0 0.0 0.00 0.00 0.00 26 1015.7
20260506200548 80 174 0.0 1.0 0.00 0.00 0.00 26 1015.6
20260506200045 80 200 0.0 0.0 0.00 0.00 0.00 26 1015.8
20260506195541 80 124 0.0 0.0 0.00 0.00 0.00 25 1015.9
20260506195038 81 163 0.0 0.0 0.00 0.00 0.00 25 1016.0
20260506194536 81 178 0.0 1.0 0.00 0.00 0.00 25 1015.7
20260506194032 80 151 0.0 1.0 0.00 0.00 0.00 25 1015.9
20260506193529 79 79 0.0 1.0 0.00 0.00 0.00 26 1015.9
20260506193026 80 125 0.0 0.0 0.00 0.00 0.00 26 1016.0
20260506192523 79 103 1.0 2.0 0.00 0.00 0.00 26 1016.0
20260506192019 80 177 1.0 2.0 0.00 0.00 0.00 26 1016.0
20260506191516 80 165 1.0 3.0 0.00 0.00 0.00 26 1016.1
20260506191012 80 144 0.0 0.0 0.00 0.00 0.00 26 1016.1
20260506190509 79 211 0.0 1.0 0.00 0.00 0.00 27 1016.2
20260506190006 77 185 0.0 2.0 0.00 0.00 0.00 27 1016.3
20260506185504 79 231 1.0 5.0 0.00 0.00 0.00 27 1016.3
20260506185000 80 171 0.0 0.0 0.00 0.00 0.00 27 1016.3
20260506184457 79 153 0.0 1.0 0.00 0.00 0.00 26 1016.5
20260506183954 77 110 0.0 1.0 0.00 0.00 0.00 28 1016.7
20260506183450 78 132 0.0 2.0 0.00 0.00 0.00 28 1016.6
20260506182947 77 256 0.0 1.0 0.00 0.00 0.00 28 1016.7
20260506182444 77 222 1.0 2.0 0.00 0.00 0.00 28 1016.7
20260506181941 77 357 0.0 0.0 0.00 0.00 0.00 28 1016.8
20260506181439 78 215 0.0 0.0 0.00 0.00 0.00 28 1016.6
20260506180936 77 220 0.0 1.0 0.00 0.00 0.00 29 1016.7
20260506180432 76 259 0.0 1.0 0.00 0.00 0.00 30 1016.9
20260506175929 77 212 2.0 3.0 0.00 0.00 0.00 30 1017.0
20260506175426 76 161 0.0 0.0 0.00 0.00 0.00 30 1017.0
20260506174922 77 173 0.0 1.0 0.00 0.00 0.00 31 1017.1
20260506174420 76 196 0.0 1.0 0.00 0.00 0.00 31 1017.0
20260506173917 75 148 0.0 2.0 0.00 0.00 0.00 31 1017.2
20260506173414 75 267 0.0 5.0 0.00 0.00 0.00 31 1017.0
20260506172911 75 56 0.0 0.0 0.00 0.00 0.00 31 1016.8
20260506172408 75 50 0.0 0.0 0.00 0.00 0.00 31 1017.1
20260506171905 75 346 0.0 1.0 0.00 0.00 0.00 32 1017.0
20260506171402 75 256 0.0 0.0 0.00 0.00 0.00 31 1016.9
20260506170900 78 279 0.0 0.0 0.00 0.00 0.00 31 1017.0
20260506170356 75 81 0.0 0.0 0.00 0.00 0.00 32 1017.0
20260506165855 73 223 0.0 1.0 0.00 0.00 0.00 33 1017.3
20260506165353 73 259 0.0 1.0 0.00 0.00 0.00 33 1017.0
20260506164849 74 137 0.0 0.0 0.00 0.00 0.00 33 1017.0
20260506164345 73 76 0.0 0.0 0.00 0.00 0.00 33 1016.9
20260506163844 73 256 0.0 0.0 0.00 0.00 0.00 34 1017.0
20260506163337 72 148 0.0 0.0 0.00 0.00 0.00 33 1017.1
20260506162833 72 359 0.0 0.0 0.00 0.00 0.00 34 1017.0
20260506162331 72 191 0.0 1.0 0.00 0.00 0.00 34 1016.7
20260506161823 72 242 0.0 0.0 0.00 0.00 0.00 34 1016.9
20260506161319 73 307 0.0 0.0 0.00 0.00 0.00 34 1016.9
20260506160817 72 61 0.0 0.0 0.00 0.00 0.00 34 1016.7
20260506160314 71 133 0.0 0.0 0.00 0.00 0.00 35 1016.6
20260506155812 70 212 0.0 0.0 0.00 0.00 0.00 35 1016.6
20260506155308 72 148 0.0 0.0 0.00 0.00 0.00 35 1016.9
20260506153421 70 68 0.0 0.0 0.00 0.00 0.00 36 1017.0
20260506152919 69 75 0.0 0.0 0.00 0.00 0.00 37 1017.0
20260506152415 71 83 0.0 0.0 0.00 0.00 0.00 35 1016.9
20260506151914 69 90 0.0 0.0 0.00 0.00 0.00 36 1016.9
20260506151411 69 79 0.0 0.0 0.00 0.00 0.00 37 1016.8
20260506150908 68 82 0.0 0.0 0.00 0.00 0.00 38 1016.7
20260506150404 68 49 0.0 0.0 0.00 0.00 0.00 38 1017.0
20260506145901 66 82 0.0 0.0 0.00 0.00 0.00 39 1016.9
20260506145357 67 73 0.0 0.0 0.00 0.00 0.00 39 1016.9
20260506144855 66 69 0.0 0.0 0.00 0.00 0.00 40 1016.7
20260506144351 65 358 0.0 0.0 0.00 0.00 0.00 41 1017.0
20260506143850 65 346 0.0 0.0 0.00 0.00 0.00 40 1016.8
20260506143346 64 312 0.0 0.0 0.00 0.00 0.00 40 1017.2
20260506142845 64 11 0.0 0.0 0.00 0.00 0.00 40 1017.0
20260506142342 65 5 0.0 0.0 0.00 0.00 0.00 41 1016.9
20260506141841 64 41 0.0 0.0 0.00 0.00 0.00 42 1016.9
20260506141338 64 347 0.0 0.0 0.00 0.00 0.00 43 1016.7
20260506140836 63 351 0.0 0.0 0.00 0.00 0.00 44 1016.8
20260506140333 64 55 0.0 0.0 0.00 0.00 0.00 43 1016.6
20260506135830 63 27 0.0 0.0 0.00 0.00 0.00 44 1016.4
20260506135326 63 127 0.0 0.0 0.00 0.00 0.00 44 1016.2
20260506134823 63 335 0.0 0.0 0.00 0.00 0.00 44 1016.1
20260506134319 62 236 0.0 0.0 0.00 0.00 0.00 45 1016.1
20260506133817 62 57 0.0 0.0 0.00 0.00 0.00 45 1016.1
20260506133313 62 194 0.0 0.0 0.00 0.00 0.00 46 1016.2